Location: *
(49.0044°N, 9.5056°E)
Time: 11:48:09
(UTC+00:00)

Cosmos 2218 Rocket - Pass Details

Date: 22 September 2019
Orbit: 956 x 1006 km, 82.9° (Epoch: 18 October)

Event Time Altitude Azimuth Distance (km) Brightness Sun altitude
Rises 18:43:47 0° 352° (N) 3,741 7.4 -14.2°
Reaches altitude 10° 18:46:22 10° 355° (N) 2,783 6.7 -14.6°
Maximum altitude 18:52:44 66° 78° (ENE) 1,080 4.0 -15.6°
Drops below altitude 10° 18:58:59 10° 160° (SSE) 2,733 6.0 -16.6°
Enters shadow 18:59:16 - 161° (SSE) 2,841 6.1 -16.6°
